Regional Weather Roundup
Issued by NWS Columbia, SC

Home | Current Version | Previous Version | Text Only | Print | Product List | Glossary On
Versions: 1 2 3 4 5 6 7 8 9 10 11 12 13 14 15 16 17 18 19 20 21 22 23 24 25 26 27 28 29 30 31 32 33 34 35 36 37 38 39 40 41 42 43 44 45 46 47 48 49 50
000
ASUS42 KCAE 302310
RWRCAE
REGIONAL WEATHER ROUNDUP
NATIONAL WEATHER SERVICE COLUMBIA SC
700 PM EDT SAT APR 30 2016

NOTE: "FAIR" INDICATES FEW OR NO CLOUDS BELOW 12,000 FEET WITH NO
SIGNIFICANT WEATHER AND/OR OBSTRUCTIONS TO VISIBILITY.

NOT ALL STATIONS ARE QUALITY CONTROLLED BY THE NATIONAL
WEATHER SERVICE. USE DATA WITH CAUTION...ESPECIALLY
DEWPOINT OBSERVATIONS.

SCZ001>056-GAZ040-063>065-077-010000-
...UPSTATE SOUTH CAROLINA...

CITY           SKY/WX    TMP DP  RH WIND       PRES   REMARKS
ANDERSON       LGT RAIN  67  65  93 NE8       29.96F
LIBERTY          N/A     66  64  93 NE8       29.99S
SPARTANBURG    CLOUDY    66  63  88 NW6       30.04R
CLEMSON        CLOUDY    70  65  84 NE8       29.99F
GREENVILLE     LGT RAIN  68  65  90 NE5       30.01F
GREENWOOD      CLOUDY    74  63  68 N12       29.99R
GREER          LGT RAIN  66  64  94 N7        30.01R
ROCK HILL      CLOUDY    70  67  90 NE8       30.00F
CHESTER        CLOUDY    75  63  64 NE10      29.99S HAZE
LAURENS        CLOUDY    72  68  88 N6        29.99R


...CENTRAL SOUTH CAROLINA...

CITY           SKY/WX    TMP DP  RH WIND       PRES   REMARKS
COLUMBIA APT   PTSUNNY   85  59  41 S16       29.97R
COLUMBIA OWENS CLOUDY    84  60  44 S9        29.98S
MCENTIRE ANGB  PTSUNNY   80  66  60 SE12      29.99R
ORANGEBURG     MOSUNNY   81  63  54 S9        30.00R
SUMTER SHAW    CLOUDY    81  65  58 SE12G17   29.98R
NEWBERRY       CLOUDY    82  63  51 S7        29.99S
AIKEN          FAIR      81  61  50 SE10      30.00S
BARNWELL       FAIR      84  59  42 SE16      29.98S
CAMDEN         MOCLDY    75  70  83 E7        30.01R
LANCASTER      MOCLDY    79  66  65 E16G24    29.97F
WINNSBORO      PTCLDY    81  63  54 SE9       29.98S


...EASTERN AND COASTAL SOUTH CAROLINA...

CITY           SKY/WX    TMP DP  RH WIND       PRES   REMARKS
MYRTLE BEACH   PTSUNNY   70  57  64 E17G24    30.10R
N MYRTLE BCH   PTSUNNY   70  61  73 E10       30.08S
CONWAY         FAIR      70  63  78 SE8       30.08R HAZE
MARION         FAIR      73  64  73 SE7       30.05S
HARTSVILLE     FAIR     N/A N/A N/A E10       30.03R
FLORENCE       PTSUNNY   76  65  68 SE12      30.04R
CHARLESTON APT CLOUDY    78  68  71 SE10      30.03R
MOUNT PLEASANT MOCLDY    75  70  83 E5        30.03S
WALTERBORO     CLOUDY    81  64  57 SE8       30.03R
BEAUFORT       MOSUNNY   79  68  69 SE8G16    30.01R


...EASTERN GEORGIA...

CITY           SKY/WX    TMP DP  RH WIND       PRES   REMARKS
AUGUSTA BUSH F MOSUNNY   82  62  50 SE10      29.94S
AUGUSTA DANIEL CLOUDY    84  61  45 SE8       29.96S
THOMSON        CLOUDY    87  65  47 SE7       29.99S
WASHINGTON     FAIR      79  63  57 CALM      29.95S
CLAXTON        FAIR      82  70  67 E7G17     29.97R
SYLVANIA       CLOUDY    82  67  59 SE8       29.98F
STATESBORO     MOSUNNY   85  68  57 SE8G16    29.96F
SAVANNAH       PTSUNNY   80  68  66 SE12      29.99R


...SOUTHERN NORTH CAROLINA...

CITY           SKY/WX    TMP DP  RH WIND       PRES   REMARKS
CHARLOTTE      TSTM      68  64  87 N8        30.02F FOG
MONROE         CLOUDY    69  65  86 NE9       30.02R
WADESBORO      CLOUDY    74  60  62 E9        30.03R
ROCKINGHAM     CLEAR     72  63  74 E10G18    30.04S
RUTHERFORDTON  CLOUDY    65  65 100 CALM      30.07R VSB 1
ASHEVILLE      CLOUDY    63  59  87 SE5       30.06F

$$



USA.gov is the U.S. government's official web portal to all federal, state and local government web resources and services.